Temp: 10.3°C   Baro: 1019.9mb
  Wind: 2.9mph   Dir: S (179°)
  Rain: 0.0mm (0.0mm/hr)
  Solar: 0W/m2  Hum: 90%

10 day detailed forecast for Bath, United Kingdom

Last update: 24.11.2020 01:33
Next update: 24.11.2020 07:39
Latitude: 51.38° N
Longitude: 2.36° W
meteogram
    Temperature Precipitation Pressure Wind Humidity Clouds Fog
 07:42     16:09 Today
03:00   1019.5 mb 14 mph 95% 41%
04:00   1019.0 mb 12 mph 96% 80%
05:00   1018.4 mb 12 mph 96% 69%
06:00   1018.0 mb 11 mph 96% 100%
07:00   1017.8 mb 11 mph 95% 100%
08:00   1017.4 mb 12 mph 94% 92%
09:00   1017.1 mb 12 mph 93% 92%
10:00   1016.5 mb 12 mph 92% 98%
11:00   1015.5 mb 16 mph 87% 98%
12:00 1.3 mm 1014.6 mb 14 mph 89% 97%
13:00 0.8 mm 1013.7 mb 13 mph 88% 85%
14:00 0.6 mm 1012.6 mb 13 mph 86% 43%
15:00   1011.5 mb 14 mph 85% 57%
16:00   1011.0 mb 15 mph 86% 66%
17:00   1010.6 mb 15 mph 86% 99%
18:00   1010.2 mb 14 mph 87% 100%
19:00   1010.0 mb 13 mph 87% 100%
20:00   1009.8 mb 13 mph 88% 94%
21:00   1009.6 mb 13 mph 92% 85%
22:00   1009.4 mb 12 mph 94% 88%
23:00   1009.1 mb 13 mph 94% 83%
 07:44     16:08 Tomorrow
00:00   1008.8 mb 13 mph 94% 98%
01:00 0.1 mm 1008.6 mb 12 mph 93% 95%
02:00 0.2 mm 1008.4 mb 11 mph 93% 97%
03:00 0.1 mm 1008.2 mb 11 mph 95% 99%
04:00 0.3 mm 1008.1 mb 9 mph 96% 100%
05:00 0.5 mm 1008.5 mb 5 mph 97% 99%
06:00 0.3 mm 1009.1 mb 6 mph 97% 100%
07:00 0.8 mm 1009.9 mb 8 mph 97% 100%
08:00 0.9 mm 1010.6 mb 8 mph 92% 100%
09:00 0.8 mm 1011.8 mb 9 mph 93% 98%
10:00 0.7 mm 1012.6 mb 8 mph 93% 100%
11:00 0.6 mm 1013.4 mb 8 mph 92% 99%
12:00 0.1 mm 1013.8 mb 8 mph 88% 87%
13:00   1014.0 mb 9 mph 82% 20%
14:00   1014.5 mb 8 mph 78% 65%
15:00   1015.1 mb 5 mph 81% 20%
16:00   1015.8 mb 4 mph 90% 33%
17:00   1016.5 mb 4 mph 93% 37%
18:00   1017.2 mb 4 mph 93% 59%
19:00   1017.8 mb 5 mph 94% 81%
20:00   1018.3 mb 4 mph 94% 84%
21:00   1018.8 mb 4 mph 94% 90%
22:00   1019.6 mb 5 mph 95% 27%
23:00   1020.2 mb 5 mph 94% 25%
 07:45     16:07 Thursday 26.11.2020
00:00   1020.4 mb 5 mph 93% 18%
01:00   1020.7 mb 6 mph 93% 24%
02:00   1020.9 mb 5 mph 91% 4%
03:00   1021.0 mb 3 mph 91% 0%
04:00   1021.0 mb 4 mph 93% 0%
05:00   1021.0 mb 5 mph 95% 0%
06:00   1021.2 mb 5 mph 96% 52%
07:00   1021.6 mb 5 mph 98% 34%
08:00   1022.0 mb 6 mph 97% 0%
09:00   1022.3 mb 3 mph 96% 0%
10:00   1022.4 mb 2 mph 92% 4%
11:00   1022.2 mb 1 mph 89% 13%
12:00   1021.9 mb 2 mph 86% 6%
13:00   1021.6 mb 3 mph 84% 0%
14:00   1021.5 mb 4 mph 85% 0%
15:00   1021.4 mb 2 mph 92% 0%
16:00   1021.5 mb 5 mph 99% 0%
17:00   1021.7 mb 5 mph 100% 76% 76%
18:00   1021.9 mb 5 mph 100% 100% 100%
 07:47     16:07 Friday 27.11.2020
00:00   1025.3 mb 6 mph 99% 100%
06:00   1024.3 mb 6 mph 96% 100%
12:00   1023.2 mb 7 mph 88% 100%
18:00   1020.2 mb 6 mph 96% 26%
 07:48     16:06 Saturday 28.11.2020
00:00   1017.4 mb 7 mph 97% 10%
06:00   1014.8 mb 7 mph 97% 99%
12:00   1015.0 mb 12 mph 89% 84%
18:00   1016.3 mb 9 mph 94% 67%
 07:50     16:05 Sunday 29.11.2020
00:00   1018.0 mb 7 mph 96% 57%
06:00   1018.5 mb 7 mph 97% 2%
12:00   1019.9 mb 12 mph 88% 100%
18:00   1020.0 mb 10 mph 90% 20%
 07:51     16:04 Monday 30.11.2020
00:00   1021.4 mb 7 mph 95% 38%
06:00   1022.2 mb 6 mph 97% 28%
12:00   1024.2 mb 9 mph 84% 32%
18:00   1026.4 mb 9 mph 92% 53%
 07:53     16:04 Tuesday 01.12.2020
00:00   1029.1 mb 6 mph 96% 10%
06:00   1030.7 mb 6 mph 95% 3%
12:00   1032.0 mb 7 mph 84% 34%
18:00   1031.1 mb 6 mph 90% 53%
 07:54     16:03 Wednesday 02.12.2020
00:00   1030.5 mb 5 mph 95% 31%
06:00   1028.5 mb 6 mph 93% 91%
12:00   1027.8 mb 6 mph 78% 67%
18:00   1026.6 mb 4 mph 83% 92%
 07:55     16:03 Thursday 03.12.2020
00:00   1026.8 mb 4 mph 92% 70%
06:00   1025.5 mb 4 mph 98% 95%